Regional Weather Roundup
Issued by NWS

Home | Current Version | Previous Version | Graphics & Text | Print | Product List | Glossary On
Versions: 1 2 3 4 5 6 7 8 9 10 11 12 13 14 15 16 17 18 19 20 21 22 23 24 25 26 27 28 29 30 31 32 33 34 35 36 37 38 39 40 41 42 43 44 45 46 47 48 49
000
ASUS45 KBOU 300207
RWRCO

WEATHER ROUNDUP FOR COLORADO
NATIONAL WEATHER SERVICE DENVER/BOULDER CO
800 PM MDT MON SEP 29 2014

NOTE: "FAIR" INDICATES FEW OR NO CLOUDS BELOW 12000 FEET WITH NO
SIGNIFICANT WEATHER AND/OR OBSTRUCTIONS TO VISIBILITY.

COZ001>005-013-030-031-300300-
...NORTHWEST COLORADO...

CITY           SKY/WX    TMP DP  RH WIND       PRES   REMARKS
CRAIG          CLOUDY    48  39  71 S10       29.98F
HAYDEN         CLOUDY    45  39  81 SW3       29.99F
MEEKER         CLOUDY    45  39  79 CALM      30.03S
MOUNT WERNER   NOT AVBL
STEAMBOAT SPGS CLOUDY    41  40  95 E7        30.01F
WALDEN         CLOUDY    36  34  93 S8        30.00F
$$

COZ006>008-011-300300-
...WEST CENTRAL VALLEYS...

CITY           SKY/WX    TMP DP  RH WIND       PRES   REMARKS
GRAND JUNCTION PTCLDY    47  45  93 CALM      30.02S
MONTROSE       CLOUDY    47  44  90 CALM      30.07S
EAGLE          CLOUDY    43  43 100 CALM      30.05F
RIFLE          CLOUDY    47  44  90 CALM      30.03S
DELTA          HVY RAIN  51  46  82 CALM      30.05S
NUCLA          NOT AVBL
$$

COZ017>023-064>068-300300-
...SOUTHWEST COLORADO...

CITY           SKY/WX    TMP DP  RH WIND       PRES   REMARKS
DURANGO        PTCLDY    48  37  65 NW5       30.08R
CORTEZ         CLEAR     51  39  63 CALM      30.07R
PAGOSA SPRINGS PTCLDY    43  42  96 S3        30.12R
TELLURIDE      NOT AVBL
WOLF CREEK PAS SNOW      28  28 100 SW37G46   30.19R VSB 1/2 WCI  11
$$

COZ009-010-012-014-032>034-037-058>063-300300-
...CENTRAL COLORADO...

CITY           SKY/WX    TMP DP  RH WIND       PRES   REMARKS
ASPEN          CLOUDY    41  37  87 CALM      30.05F
BUENA VISTA    MOCLDY    46  30  53 W14G23    30.00R
COPPER MTN     SNOW      32  28  86 W24G30    30.11R VSB<1/4 WCI  19
BERTHOUD PASS  CLOUDY    25  23  93 MISG      30.09F
COTTONWOOD PAS LGT SNOW  37  30  75 W24G41    30.04R
GUNNISON       CLOUDY    43  34  70 SW5       30.08F
KREMMLING      RAIN      37  34  87 W3        30.04S
LEADVILLE      CLOUDY    33  27  78 N16G22    30.06R WCI  23
MONARCH PASS   FOG       28  27  93 MISG      30.19F VSB<1/4
SALIDA         CLOUDY    49  32  52 SW13      30.08R
SUNLIGHT       CLOUDY    32  32 100 CALM      30.13F FOG
WILKERSON PASS NOT AVBL
$$

COZ069>075-300300-
...SAN LUIS VALLEY/SANGRE DE CRISTO MOUNTAINS...

CITY           SKY/WX    TMP DP  RH WIND       PRES   REMARKS
ALAMOSA        CLEAR     42  38  85 SW9       30.04S
LA VETA PASS   CLOUDY    34  32  93 SW12G24   30.06R WCI  25
SAGUACHE       CLOUDY    45  36  70 NW8       30.05R
$$

COZ035-036-038>040-300300-
...NORTHERN COLORADO FRONT RANGE...

CITY           SKY/WX    TMP DP  RH WIND       PRES   REMARKS
DENVER INTL AP LGT RAIN  53  49  86 N28G38    29.81R
DMNS CITY PARK   N/A     53  51  94 N3G18     29.83S
AURORA         CLOUDY    52  52 100 NW8       29.83F
FRONT RANGE AP NOT AVBL
ERIE MUNI ARPT CLOUDY    53  48  84 N9        29.82F
BOULDER MUN AP CLOUDY    54  52  94 E5        29.82F
CENTENNIAL     CLOUDY    52  51  97 NW7       29.84F
BROOMFIELD     CLOUDY    54  50  87 NW8       29.84R
FORT COLLINS   CLOUDY    48  45  87 N24G35    29.86S
LONGMONT       CLOUDY    55  47  74 N8        29.84R
$$

COZ041-046-047-076>085-087-088-300300-
...PIKES PEAK/PALMER DIVIDE AND SOUTHERN FOOTHILLS...

CITY           SKY/WX    TMP DP  RH WIND       PRES   REMARKS
COLO. SPRINGS  MOCLDY    52  44  74 SE9       29.87R
A. F. ACADEMY  CLOUDY    53  38  56 SE10G20   29.88R
ELLICOTT       NOT AVBL
FALCON         MOCLDY    50  35  57 W10       29.89R
FORT CARSON    MOCLDY    54  37  52 W14       29.87R
LIMON          CLOUDY    51  49  92 S9        29.83R
MONUMENT HILL  CLOUDY    41  41 100 SW7       29.88R
TRINIDAD       CLEAR     55  41  59 SW3       29.92R
$$

COZ042>045-048>051-090-091-300300-
...NORTHEAST COLORADO...

CITY           SKY/WX    TMP DP  RH WIND       PRES   REMARKS
GREELEY ARPT   CLOUDY    48  45  87 NW24G31   29.83S
AKRON          CLOUDY    55  54  94 NW17      29.77F
BURLINGTON     RAIN      57  54  89 SW13      29.89R
WRAY           TSTM      65  54  69 SW26G35   29.79R
STERLING       LGT RAIN  61  59  94 W10       29.75S
HOLYOKE        RAIN      73  55  53 SE26G48   29.71R
FORT MORGAN    DRIZZLE   54  52  92 N12       29.76F
$$

COZ086-089-092>099-300300-
...SOUTHEAST COLORADO...

CITY           SKY/WX    TMP DP  RH WIND       PRES   REMARKS
PUEBLO         PTCLDY    57  45  64 VRB3      29.83R
LA JUNTA       CLOUDY    59  49  69 MISG      29.83R
LAMAR          LGT RAIN  56  54  93 SE15      29.84R
SPRINGFIELD      N/A     60  57  89 S12       29.90R
$$


USA.gov is the U.S. government's official web portal to all federal, state and local government web resources and services.